[[{"header":{"parameterUnit":"m.s-1","parameterCategory":1,"la1":30.2991,"la2":30.254,"lo1":-89.0895,"lo2":-89.0444,"dy":0.0017,"dx":0.0017,"nx":28,"ny":28,"refTime":"2025-08-16T09:00:00:Z","depth":0,"parameterNumber":2,"parameterNumberName":"U-component_of_WINDS"},"data":[0,0,0,0,0,0,0,0,0,0,0,0,0,0,0,0,0,0,0,0,0,0,0,0,0,0,0,0,0,0,0,0,0,0,0,0,0,0,0,0,0,0,0,0,0,0,0,0,0,0,0,0,0,0,0,0,0,0,1.4074,1.4074,0,1.4075,1.4075,1.4075,1.4054,1.4053,1.4053,1.4052,1.4053,1.4053,1.4054,0,0,0,0,0,0,0,0,0,0,0,0,0,1.4054,1.4054,1.4074,1.4074,1.4074,1.4075,1.4075,1.4075,1.4054,1.4053,1.4053,1.4052,1.4052,1.4053,1.4054,0,0,0,0,0,0,0,0,0,0,0,0,0,1.4059,1.4055,1.4074,1.4063,1.4063,1.4075,1.4075,1.4075,1.4054,1.4053,1.4053,1.4052,1.4052,1.4053,1.4054,1.4075,0,0,1.4056,1.4057,0,0,0,0,0,0,0,0,1.4059,1.406,1.4065,1.4064,1.4063,1.4063,1.4068,1.4075,1.4054,1.4057,1.4052,1.4051,1.4057,1.4057,1.4059,1.4075,1.4075,1.4056,1.4057,1.4057,1.4057,0,0,0,0,0,0,0,1.4059,1.406,1.4074,1.4065,1.4064,1.4059,1.4059,1.4069,1.4062,1.4057,1.4056,1.4056,1.4056,1.4058,1.4059,1.4075,1.4056,1.4057,1.4057,1.4058,1.4109,1.411,0,0,0,0,0,0,1.406,1.406,1.4074,1.4074,1.4059,1.406,1.406,1.4064,1.4062,1.406,1.4057,1.4055,1.4057,1.4058,1.4059,1.4083,1.4057,1.4058,1.4058,1.4108,1.4109,1.411,0,0,0,0,0,0,1.4059,1.4061,1.4074,1.4066,1.4068,1.4061,1.4066,1.4065,1.4067,1.4061,1.406,1.406,1.4057,1.4058,1.4071,1.4083,1.4058,1.4059,1.4107,1.4109,1.411,1.4133,0,0,0,0,0,0,1.4059,1.4061,1.4069,1.4067,1.4068,1.4086,1.4067,1.4065,1.4068,1.4066,1.4064,1.4063,1.4056,1.407,1.4072,1.4084,1.4059,1.4106,1.4108,1.4109,1.4131,1.4135,1.4138,0,0,0,0,0,1.4058,1.4075,1.407,1.4071,1.4078,1.4087,1.4088,1.408,1.4069,1.4077,1.4074,1.4063,1.4082,1.4072,1.4074,1.4086,1.4105,1.4107,1.4109,1.4129,1.4134,1.4138,0,0,0,0,0,0,1.4078,1.4075,1.4068,1.4085,1.4087,1.4083,1.4093,1.4085,1.4089,1.4087,1.4076,1.4076,1.4091,1.409,1.4079,1.4107,1.4092,1.4094,1.4106,1.4111,1.4114,1.4114,1.406,0,0,0,0,0,1.4085,1.4093,1.4089,1.4104,1.4105,1.4099,1.4103,1.4097,1.4098,1.4098,1.4096,1.4097,1.4103,1.4107,1.4112,1.4131,1.413,1.4141,1.4144,1.4147,1.4149,1.4159,1.4163,1.4117,1.4117,1.4117,0,0,1.4098,1.4097,1.4103,1.4108,1.4109,1.4117,1.41,1.4109,1.4115,1.4099,1.4112,1.411,1.4111,1.4127,1.4135,1.4127,1.4162,1.415,1.4152,1.4152,1.4161,1.4166,1.417,1.4118,1.4118,1.4118,0,0,1.4126,1.4127,1.4139,1.414,1.4141,1.4137,1.4141,1.4139,1.4138,1.415,1.4139,1.4146,1.4157,1.4158,1.416,1.419,1.418,1.4192,1.421,1.422,1.4224,1.4227,1.4237,1.4241,1.4194,1.4194,1.4194,0,1.4142,1.4154,1.4147,1.4157,1.416,1.4147,1.416,1.4161,1.4164,1.4166,1.4158,1.4172,1.4171,1.4188,1.4195,1.4197,1.42,1.4191,1.4224,1.4227,1.423,1.4239,1.4243,1.4196,1.4196,1.4195,1.4195,0,1.4173,1.4182,1.4192,1.4196,1.42,1.4212,1.4206,1.4211,1.4205,1.4202,1.4216,1.4215,1.422,1.4224,1.4218,1.424,1.4235,1.4226,1.421,1.4236,1.4244,1.4248,1.4198,1.4197,1.4197,1.4196,0,0,1.4212,1.4213,1.4216,1.4218,1.4219,1.4225,1.4237,1.4242,1.4247,1.425,1.4259,1.4269,1.4261,1.4263,1.4257,1.4266,1.4289,1.4255,1.4255,1.4261,1.4313,1.4319,1.4323,1.4284,1.4285,1.4285,1.4312,0,1.4238,1.4257,1.4252,1.4271,1.4279,1.4268,1.4278,1.428,1.4278,1.4284,1.4282,1.4289,1.4278,1.4279,1.4287,1.4285,1.4299,1.4283,1.4291,1.4292,1.429,1.4328,1.4334,1.436,1.4316,1.4316,1.4317,0,1.4271,1.4276,1.4296,1.4297,1.43,1.4309,1.4314,1.432,1.4322,1.432,1.4324,1.4317,1.4328,1.4314,1.4329,1.4318,1.4321,1.4321,1.4321,1.4321,1.4305,1.4327,1.4368,1.4371,1.4322,1.4322,1.4321,0,1.4296,1.4308,1.4322,1.4323,1.4325,1.4331,1.4332,1.4333,1.4337,1.4342,1.4344,1.435,1.4353,1.4358,1.4352,1.4343,1.4368,1.4354,1.4366,1.4366,1.437,1.437,1.4411,1.4375,1.4375,1.4375,1.4375,0,1.4326,1.4338,1.4333,1.4341,1.4355,1.4349,1.4363,1.4362,1.4364,1.4372,1.4363,1.4371,1.4364,1.4371,1.4367,1.438,1.4382,1.438,1.4378,1.438,1.438,1.4381,1.4378,1.4376,1.4376,1.4375,1.4375,0,1.4355,1.4352,1.4366,1.4367,1.4367,1.4377,1.4378,1.4385,1.4384,1.4394,1.4396,1.4393,1.44,1.4396,1.4404,1.4402,1.4418,1.4415,1.4417,1.4416,1.4428,1.4427,1.447,1.4475,1.4437,1.4437,1.4438,0,1.4373,1.4382,1.4385,1.4389,1.4391,1.4399,1.4403,1.4398,1.4403,1.4407,1.4414,1.4422,1.4427,1.444,1.4438,1.4445,1.4441,1.4456,1.4441,1.4443,1.444,1.4439,1.4439,1.4458,1.4458,1.4459,1.4459,0,1.4405,1.4404,1.441,1.4417,1.4423,1.4427,1.4431,1.4436,1.4431,1.4437,1.4445,1.445,1.4458,1.4466,1.4471,1.4472,1.4464,1.4464,1.4467,1.4468,1.4468,1.4467,1.4424,1.4462,1.4462,1.4462,1.4462,1.4462,1.4429,1.4437,1.444,1.4448,1.445,1.4455,1.4462,1.4462,1.4469,1.4476,1.4473,1.4482,1.4485,1.4492,1.4493,1.4501,1.4495,1.4499,1.45,1.4501,1.4502,1.4469,1.4502,1.4502,1.4502,1.4502,1.4502,0,1.4459,1.4461,1.4469,1.4475,1.4482,1.4476,1.448,1.4486,1.4494,1.4498,1.4504,1.4514,1.4521,1.4521,1.4527,1.4533,1.453,1.4535,1.4534,1.4534,1.4508,1.4504,1.4537,1.4537,1.4537,1.4537,1.4537,1.4537,1.4476,1.4489,1.4489,1.4503,1.4505,1.4515,1.4518,1.4522,1.4525,1.4536,1.4542,1.4542,1.4544,1.4551,1.4558,1.4558,1.456,1.4566,1.4564,1.4539,1.4536,1.4532,1.4529,1.4567,1.4567,1.459,1.459,1.459]},{"header":{"parameterUnit":"m.s-1","parameterCategory":1,"la1":30.2991,"la2":30.254,"lo1":-89.0895,"lo2":-89.0444,"dy":0.0017,"dx":0.0017,"nx":28,"ny":28,"refTime":"2025-08-16T09:00:00:Z","depth":0,"parameterNumber":3,"parameterNumberName":"V-component_of_WINDS"},"data":[0,0,0,0,0,0,0,0,0,0,0,0,0,0,0,0,0,0,0,0,0,0,0,0,0,0,0,0,0,0,0,0,0,0,0,0,0,0,0,0,0,0,0,0,0,0,0,0,0,0,0,0,0,0,0,0,0,0,-3.0711,-3.0711,0,-3.0784,-3.0785,-3.0785,-3.0764,-3.0762,-3.0761,-3.076,-3.0831,-3.0834,-3.0838,0,0,0,0,0,0,0,0,0,0,0,0,0,-3.0549,-3.0552,-3.071,-3.0711,-3.0712,-3.0784,-3.0785,-3.0786,-3.0764,-3.0762,-3.0761,-3.0759,-3.083,-3.0834,-3.0838,0,0,0,0,0,0,0,0,0,0,0,0,0,-3.062,-3.0553,-3.071,-3.071,-3.0711,-3.0783,-3.0785,-3.0786,-3.0765,-3.0762,-3.076,-3.0758,-3.0829,-3.0834,-3.0839,-3.0914,0,0,-3.0854,-3.0856,0,0,0,0,0,0,0,0,-3.0616,-3.0626,-3.0709,-3.071,-3.0711,-3.0763,-3.0754,-3.0829,-3.0765,-3.0744,-3.076,-3.0757,-3.081,-3.0816,-3.0835,-3.0918,-3.0921,-3.0854,-3.0857,-3.0859,-3.0861,0,0,0,0,0,0,0,-3.0612,-3.0623,-3.0739,-3.0711,-3.0712,-3.0706,-3.0713,-3.0768,-3.0789,-3.0746,-3.0744,-3.0754,-3.081,-3.083,-3.0836,-3.0922,-3.0854,-3.0858,-3.0862,-3.0863,-3.1071,-3.1073,0,0,0,0,0,0,-3.0606,-3.0619,-3.0737,-3.0742,-3.0658,-3.0711,-3.0719,-3.0748,-3.0788,-3.0792,-3.0755,-3.0752,-3.0823,-3.0831,-3.0839,-3.093,-3.0859,-3.0864,-3.0867,-3.1068,-3.1071,-3.1074,0,0,0,0,0,0,-3.0603,-3.0617,-3.0734,-3.068,-3.0695,-3.0716,-3.0749,-3.0751,-3.0771,-3.0795,-3.0799,-3.0772,-3.0821,-3.0832,-3.0896,-3.0932,-3.0866,-3.0871,-3.1065,-3.1069,-3.1073,-3.1113,0,0,0,0,0,0,-3.0598,-3.0616,-3.0646,-3.0681,-3.0698,-3.0791,-3.0751,-3.0754,-3.078,-3.0777,-3.0812,-3.0816,-3.082,-3.0889,-3.0901,-3.0938,-3.0875,-3.1062,-3.1067,-3.1071,-3.1109,-3.1118,-3.1126,0,0,0,0,0,-3.0593,-3.0653,-3.0647,-3.0662,-3.0735,-3.0793,-3.0802,-3.0807,-3.0783,-3.0813,-3.0828,-3.0815,-3.0927,-3.0896,-3.0909,-3.0948,-3.106,-3.1065,-3.1071,-3.1105,-3.1116,-3.1126,0,0,0,0,0,0,-3.062,-3.0658,-3.0651,-3.0726,-3.0757,-3.0789,-3.0827,-3.0819,-3.0856,-3.0852,-3.0855,-3.0863,-3.0929,-3.0945,-3.091,-3.1024,-3.0989,-3.0998,-3.1011,-3.1021,-3.103,-3.1024,-3.0879,0,0,0,0,0,-3.0635,-3.068,-3.071,-3.0773,-3.0789,-3.0805,-3.0831,-3.0832,-3.0863,-3.0876,-3.0896,-3.0927,-3.0969,-3.0996,-3.1036,-3.1111,-3.1118,-3.1145,-3.1153,-3.116,-3.1167,-3.1208,-3.122,-3.1093,-3.1092,-3.1092,0,0,-3.0666,-3.0692,-3.072,-3.0779,-3.0803,-3.0848,-3.0816,-3.0866,-3.0899,-3.0883,-3.0945,-3.0961,-3.0995,-3.1066,-3.1097,-3.1081,-3.1205,-3.1168,-3.1173,-3.1176,-3.1215,-3.1227,-3.1238,-3.1096,-3.1096,-3.1095,0,0,-3.0745,-3.077,-3.0825,-3.085,-3.0887,-3.0898,-3.0911,-3.0946,-3.0956,-3.1019,-3.1008,-3.1048,-3.112,-3.1145,-3.1167,-3.1257,-3.1245,-3.127,-3.1314,-3.1353,-3.1363,-3.1372,-3.1404,-3.1415,-3.1277,-3.1277,-3.1277,0,-3.0778,-3.0847,-3.0853,-3.0904,-3.093,-3.092,-3.0974,-3.0998,-3.1046,-3.1064,-3.1045,-3.1136,-3.1159,-3.1234,-3.1256,-3.1275,-3.1289,-3.1265,-3.1362,-3.1371,-3.1379,-3.1409,-3.1421,-3.128,-3.1279,-3.1279,-3.1279,0,-3.0886,-3.0934,-3.0974,-3.1022,-3.1052,-3.1105,-3.1118,-3.1148,-3.1147,-3.116,-3.1224,-3.125,-3.1295,-3.1314,-3.1313,-3.139,-3.1378,-3.1361,-3.1326,-3.1394,-3.1422,-3.1434,-3.1283,-3.1282,-3.1282,-3.1281,0,0,-3.0983,-3.1035,-3.1049,-3.1071,-3.1112,-3.1149,-3.1201,-3.1247,-3.1272,-3.1306,-3.1349,-3.1411,-3.1396,-3.1421,-3.1423,-3.1458,-3.1527,-3.1436,-3.1437,-3.1451,-3.1612,-3.1624,-3.1638,-3.152,-3.1522,-3.1524,-3.1609,0,-3.1065,-3.1157,-3.1165,-3.1248,-3.1292,-3.1283,-3.1329,-3.1358,-3.1372,-3.1411,-3.1425,-3.1469,-3.1445,-3.1461,-3.1495,-3.1511,-3.1559,-3.1505,-3.1559,-3.1561,-3.155,-3.1653,-3.1665,-3.1744,-3.162,-3.1622,-3.1624,0,-3.1172,-3.1211,-3.1299,-3.1334,-3.1353,-3.1394,-3.1436,-3.1474,-3.1507,-3.1515,-3.1544,-3.1541,-3.1594,-3.1559,-3.1631,-3.1594,-3.1617,-3.1628,-3.1631,-3.1635,-3.1595,-3.1659,-3.177,-3.1781,-3.1641,-3.164,-3.1638,0,-3.1233,-3.1307,-3.1369,-3.1389,-3.1432,-3.146,-3.1479,-3.1511,-3.1538,-3.1575,-3.1592,-3.1635,-3.1658,-3.169,-3.1699,-3.1672,-3.1771,-3.1736,-3.1777,-3.1777,-3.1797,-3.1796,-3.1913,-3.1814,-3.1814,-3.1813,-3.1813,0,-3.1324,-3.1377,-3.1398,-3.1436,-3.1496,-3.1504,-3.1563,-3.158,-3.1608,-3.1649,-3.1644,-3.1682,-3.1691,-3.1731,-3.1738,-3.1797,-3.1807,-3.1814,-3.1815,-3.1814,-3.1813,-3.1828,-3.1822,-3.1816,-3.1816,-3.1815,-3.1815,0,-3.1401,-3.1417,-3.1484,-3.152,-3.153,-3.1573,-3.1603,-3.1639,-3.1653,-3.1704,-3.1717,-3.1737,-3.1784,-3.1796,-3.1852,-3.1857,-3.1925,-3.1922,-3.1914,-3.1914,-3.1954,-3.195,-3.2084,-3.2101,-3.1992,-3.1993,-3.1994,0,-3.1457,-3.1499,-3.154,-3.1567,-3.1588,-3.1632,-3.166,-3.167,-3.1699,-3.1741,-3.1772,-3.1818,-3.1856,-3.1931,-3.195,-3.1992,-3.1989,-3.2033,-3.1995,-3.1993,-3.1989,-3.1986,-3.199,-3.204,-3.2041,-3.2042,-3.2043,0,-3.1555,-3.1561,-3.1602,-3.1646,-3.168,-3.1715,-3.1749,-3.1771,-3.1786,-3.1819,-3.1867,-3.1896,-3.1954,-3.2,-3.2043,-3.2061,-3.2054,-3.2055,-3.2066,-3.2065,-3.2059,-3.2062,-3.1933,-3.2051,-3.205,-3.205,-3.2049,-3.2049,-3.1622,-3.1659,-3.1694,-3.174,-3.1767,-3.1798,-3.1834,-3.1853,-3.1894,-3.1942,-3.1945,-3.1998,-3.203,-3.2088,-3.2109,-3.2149,-3.2136,-3.2153,-3.2157,-3.2161,-3.2164,-3.2054,-3.2157,-3.2157,-3.2157,-3.2157,-3.2156,0,-3.1719,-3.1741,-3.1784,-3.1832,-3.1868,-3.186,-3.1897,-3.1927,-3.1974,-3.2006,-3.2043,-3.2099,-3.2144,-3.2167,-3.2211,-3.2239,-3.2237,-3.225,-3.2248,-3.2252,-3.2174,-3.2159,-3.2251,-3.2251,-3.2251,-3.2251,-3.2251,-3.2251,-3.1773,-3.1835,-3.1845,-3.1919,-3.1941,-3.1993,-3.2015,-3.2044,-3.207,-3.2132,-3.217,-3.2186,-3.2214,-3.226,-3.2301,-3.2307,-3.2323,-3.2338,-3.2341,-3.2267,-3.2258,-3.2248,-3.2234,-3.2341,-3.2341,-3.2416,-3.2417,-3.2418]}]]